[[{"header":{"parameterUnit":"m.s-1","parameterCategory":1,"la1":30.2991,"la2":30.254,"lo1":-89.0895,"lo2":-89.0444,"dy":0.0017,"dx":0.0017,"nx":28,"ny":28,"refTime":"2025-04-26T21:00:00:Z","depth":0,"parameterNumber":2,"parameterNumberName":"U-component_of_WINDS"},"data":[0,0,0,0,0,0,0,0,0,0,0,0,0,0,0,0,0,0,0,0,0,0,0,0,0,0,0,0,0,0,0,0,0,0,0,0,0,0,0,0,0,0,0,0,0,0,0,0,0,0,0,0,0,0,0,0,0,0,0.1443,0.1445,0,0.1587,0.1588,0.159,0.159,0.1588,0.1587,0.1585,0.1736,0.1741,0.1747,0,0,0,0,0,0,0,0,0,0,0,0,0,0.1171,0.1176,0.1443,0.1445,0.1447,0.1586,0.1588,0.159,0.1591,0.1588,0.1586,0.1584,0.1734,0.1741,0.1747,0,0,0,0,0,0,0,0,0,0,0,0,0,0.1299,0.1177,0.1443,0.1464,0.1467,0.1586,0.1589,0.1591,0.1591,0.1588,0.1585,0.1583,0.1732,0.174,0.1748,0.1858,0,0,0.1775,0.1779,0,0,0,0,0,0,0,0,0.1292,0.1309,0.1459,0.1462,0.1466,0.1568,0.1548,0.1681,0.1592,0.1544,0.1585,0.1581,0.1682,0.1695,0.1728,0.1865,0.1871,0.1776,0.1781,0.1785,0.1787,0,0,0,0,0,0,0,0.1283,0.1303,0.15,0.1461,0.1466,0.1466,0.1481,0.1573,0.1627,0.1548,0.1548,0.1565,0.1684,0.172,0.1732,0.1874,0.1775,0.1783,0.1788,0.1792,0.2105,0.2108,0,0,0,0,0,0,0.127,0.1296,0.1496,0.1504,0.137,0.1473,0.149,0.1538,0.1626,0.1637,0.1567,0.1565,0.1706,0.1721,0.1737,0.1869,0.1784,0.1793,0.1798,0.2102,0.2105,0.2109,0,0,0,0,0,0,0.1264,0.1287,0.149,0.14,0.1426,0.1481,0.1535,0.1542,0.1578,0.1641,0.1651,0.1594,0.1705,0.1725,0.1827,0.1875,0.1796,0.1804,0.2098,0.2103,0.2107,0.2136,0,0,0,0,0,0,0.1256,0.1285,0.1327,0.1401,0.1431,0.1577,0.1538,0.1547,0.1593,0.159,0.1668,0.1679,0.1704,0.1814,0.1835,0.1885,0.1811,0.2094,0.21,0.2106,0.2131,0.2141,0.2149,0,0,0,0,0,0.1246,0.1331,0.1329,0.1354,0.1484,0.158,0.1597,0.1623,0.1596,0.1639,0.1679,0.1676,0.1865,0.1824,0.1849,0.1902,0.2091,0.2098,0.2105,0.2127,0.2139,0.2149,0,0,0,0,0,0,0.1264,0.1341,0.134,0.1451,0.1509,0.158,0.1635,0.1636,0.1703,0.1698,0.1729,0.1747,0.1848,0.1885,0.1838,0.2011,0.1975,0.1987,0.1983,0.1995,0.2004,0.1994,0.1818,0,0,0,0,0,0.128,0.135,0.1415,0.1507,0.1535,0.158,0.1622,0.1637,0.1699,0.1723,0.1771,0.1831,0.1904,0.1952,0.2022,0.2136,0.2152,0.2184,0.2193,0.22,0.2211,0.2271,0.2286,0.2132,0.2132,0.2132,0,0,0.1316,0.1366,0.1409,0.1511,0.1557,0.163,0.16,0.1679,0.1733,0.1736,0.1834,0.1871,0.194,0.2048,0.2098,0.2082,0.2256,0.2209,0.2215,0.2221,0.228,0.2295,0.2308,0.2137,0.2136,0.2135,0,0,0.1417,0.1463,0.1543,0.1589,0.1659,0.1687,0.1706,0.1777,0.18,0.1899,0.1902,0.1967,0.2093,0.2141,0.2182,0.2298,0.2298,0.232,0.2369,0.2428,0.244,0.2451,0.2492,0.2506,0.233,0.2331,0.2331,0,0.1452,0.1561,0.1585,0.1663,0.1707,0.171,0.1792,0.1836,0.1925,0.1956,0.1936,0.2091,0.2139,0.2257,0.2284,0.2318,0.234,0.2312,0.2436,0.2448,0.2458,0.2497,0.2512,0.2333,0.2332,0.2332,0.2332,0,0.1601,0.1675,0.1732,0.1816,0.1867,0.1946,0.1982,0.2031,0.204,0.2071,0.2171,0.2226,0.2307,0.2336,0.2348,0.2456,0.2443,0.243,0.2395,0.2475,0.2512,0.2527,0.2336,0.2335,0.2334,0.2334,0,0,0.1719,0.1813,0.1833,0.187,0.1946,0.2005,0.2083,0.2161,0.2201,0.2262,0.2329,0.2433,0.242,0.2466,0.2483,0.2534,0.2621,0.2514,0.2516,0.2532,0.2741,0.2751,0.2768,0.262,0.2623,0.2626,0.2735,0,0.1828,0.1967,0.199,0.2112,0.2181,0.2183,0.2252,0.2306,0.2336,0.2399,0.2432,0.2505,0.2483,0.251,0.2561,0.2599,0.2663,0.2592,0.2683,0.2686,0.2665,0.2788,0.2799,0.29,0.275,0.2753,0.2754,0,0.1974,0.2037,0.2165,0.2229,0.2258,0.232,0.2391,0.2451,0.2511,0.2529,0.2579,0.2589,0.267,0.2631,0.2743,0.2694,0.2732,0.2756,0.276,0.277,0.2725,0.28,0.2933,0.2947,0.2778,0.2776,0.2774,0,0.2047,0.2163,0.2254,0.2286,0.2363,0.2405,0.2439,0.2497,0.2541,0.2603,0.2632,0.2704,0.2743,0.2799,0.2827,0.2796,0.2937,0.29,0.2954,0.2953,0.2985,0.2982,0.3124,0.3009,0.3009,0.3009,0.3008,0,0.2166,0.2244,0.2287,0.2344,0.2431,0.2456,0.2541,0.2575,0.2625,0.2688,0.2695,0.2753,0.2787,0.2851,0.2874,0.2962,0.298,0.2997,0.3002,0.2996,0.2994,0.3022,0.3016,0.3013,0.3012,0.3011,0.301,0,0.2262,0.2294,0.2394,0.2457,0.2475,0.2536,0.2591,0.2645,0.2673,0.2752,0.2772,0.2817,0.2892,0.2925,0.3019,0.3034,0.3134,0.3135,0.3114,0.3116,0.3167,0.3162,0.3333,0.3356,0.3225,0.3227,0.3228,0,0.2336,0.2396,0.2465,0.2507,0.2541,0.2609,0.2653,0.2679,0.2725,0.2796,0.2842,0.2916,0.2977,0.3096,0.3138,0.3208,0.321,0.3265,0.3221,0.3213,0.321,0.3206,0.3212,0.3273,0.3275,0.3276,0.3277,0,0.2464,0.2476,0.2539,0.2607,0.2659,0.2714,0.2769,0.2802,0.2837,0.2888,0.2963,0.301,0.3103,0.3177,0.3249,0.3285,0.3287,0.329,0.3306,0.3301,0.3286,0.3293,0.3135,0.3286,0.3285,0.3284,0.3284,0.3284,0.2551,0.2604,0.2659,0.2729,0.2771,0.2821,0.2875,0.2908,0.2972,0.3048,0.306,0.314,0.3197,0.3294,0.3331,0.3395,0.3381,0.3405,0.3411,0.3416,0.3419,0.3275,0.3408,0.3408,0.3408,0.3407,0.3407,0,0.2678,0.2714,0.2777,0.2851,0.2905,0.29,0.2959,0.3005,0.3075,0.3127,0.3186,0.3271,0.3342,0.3387,0.3459,0.35,0.3502,0.3518,0.3515,0.3523,0.3427,0.3406,0.3515,0.3515,0.3515,0.3515,0.3514,0.3514,0.2751,0.2839,0.2857,0.2965,0.3,0.3078,0.3112,0.3157,0.3198,0.3293,0.3351,0.338,0.3429,0.3503,0.3567,0.3579,0.3605,0.3621,0.3631,0.3541,0.353,0.3519,0.3499,0.3626,0.3626,0.3722,0.3723,0.3723]},{"header":{"parameterUnit":"m.s-1","parameterCategory":1,"la1":30.2991,"la2":30.254,"lo1":-89.0895,"lo2":-89.0444,"dy":0.0017,"dx":0.0017,"nx":28,"ny":28,"refTime":"2025-04-26T21:00:00:Z","depth":0,"parameterNumber":3,"parameterNumberName":"V-component_of_WINDS"},"data":[0,0,0,0,0,0,0,0,0,0,0,0,0,0,0,0,0,0,0,0,0,0,0,0,0,0,0,0,0,0,0,0,0,0,0,0,0,0,0,0,0,0,0,0,0,0,0,0,0,0,0,0,0,0,0,0,0,0,2.9292,2.9292,0,2.9256,2.9256,2.9256,2.9268,2.9268,2.9269,2.927,2.9228,2.9226,2.9224,0,0,0,0,0,0,0,0,0,0,0,0,0,2.9364,2.9363,2.9292,2.9292,2.9291,2.9257,2.9256,2.9256,2.9267,2.9268,2.9269,2.927,2.9228,2.9226,2.9224,0,0,0,0,0,0,0,0,0,0,0,0,0,2.9331,2.9363,2.9292,2.9293,2.9293,2.9257,2.9256,2.9255,2.9267,2.9268,2.927,2.9271,2.9229,2.9226,2.9223,2.9182,0,0,2.9215,2.9214,0,0,0,0,0,0,0,0,2.9333,2.9329,2.9293,2.9293,2.9293,2.9268,2.9266,2.9231,2.9267,2.9277,2.927,2.9271,2.924,2.9236,2.9227,2.918,2.9179,2.9215,2.9213,2.9212,2.9211,0,0,0,0,0,0,0,2.9335,2.933,2.9278,2.9293,2.9292,2.9293,2.929,2.9259,2.9252,2.9276,2.9277,2.9273,2.924,2.9229,2.9226,2.9178,2.9215,2.9212,2.9211,2.9209,2.9094,2.9093,0,0,0,0,0,0,2.9339,2.9332,2.9279,2.9277,2.9316,2.9291,2.9287,2.9274,2.9252,2.925,2.9272,2.9273,2.9233,2.9229,2.9224,2.9173,2.9212,2.9209,2.9208,2.9096,2.9094,2.9092,0,0,0,0,0,0,2.934,2.9334,2.928,2.9305,2.9298,2.9289,2.9274,2.9273,2.9263,2.9249,2.9247,2.9263,2.9234,2.9228,2.9193,2.9172,2.9208,2.9205,2.9097,2.9095,2.9093,2.9072,0,0,0,0,0,0,2.9342,2.9334,2.932,2.9304,2.9297,2.9251,2.9273,2.9272,2.9259,2.926,2.924,2.9238,2.9235,2.9197,2.919,2.9169,2.9203,2.9099,2.9096,2.9094,2.9074,2.9069,2.9065,0,0,0,0,0,2.9345,2.9315,2.9319,2.9313,2.9279,2.925,2.9246,2.9244,2.9257,2.9241,2.9232,2.9239,2.9176,2.9193,2.9185,2.9163,2.91,2.9097,2.9094,2.9076,2.907,2.9065,0,0,0,0,0,0,2.9327,2.9313,2.9318,2.9282,2.9267,2.9252,2.9233,2.9238,2.9218,2.922,2.9217,2.9212,2.9176,2.9166,2.9186,2.9121,2.914,2.9135,2.9129,2.9123,2.9118,2.9121,2.9201,0,0,0,0,0,2.9319,2.9299,2.9287,2.9256,2.9249,2.9242,2.9229,2.923,2.9214,2.9207,2.9195,2.9178,2.9154,2.9138,2.9115,2.9073,2.9068,2.9054,2.9049,2.9046,2.9041,2.9016,2.9009,2.9082,2.9082,2.9082,0,0,2.9302,2.9292,2.9279,2.9252,2.9241,2.9218,2.9237,2.9212,2.9194,2.9202,2.9168,2.9159,2.9139,2.91,2.9082,2.9091,2.902,2.9042,2.9039,2.9036,2.9012,2.9005,2.8999,2.908,2.908,2.9081,0,0,2.9259,2.925,2.9223,2.9211,2.9195,2.919,2.9184,2.9168,2.9162,2.9129,2.9134,2.9112,2.9071,2.9057,2.9044,2.8994,2.8998,2.8987,2.8962,2.8937,2.8932,2.8926,2.8907,2.89,2.8982,2.8982,2.8982,0,2.9239,2.9207,2.9208,2.9183,2.917,2.9178,2.9149,2.9138,2.9113,2.9103,2.9114,2.9063,2.905,2.9006,2.8994,2.8984,2.8975,2.8988,2.8933,2.8928,2.8923,2.8904,2.8897,2.8981,2.8981,2.8981,2.8981,0,2.9182,2.9159,2.9139,2.9117,2.9102,2.9075,2.9071,2.9055,2.9056,2.905,2.9014,2.8999,2.8973,2.8963,2.8963,2.8919,2.8924,2.8934,2.8952,2.8914,2.8896,2.8889,2.8979,2.898,2.898,2.898,0,0,2.9126,2.9106,2.9098,2.9087,2.9069,2.905,2.9023,2.8999,2.8985,2.8968,2.8943,2.8908,2.8917,2.8902,2.8901,2.8879,2.8839,2.8891,2.8891,2.888,2.8786,2.8778,2.877,2.8842,2.8841,2.884,2.8787,0,2.908,2.9034,2.9034,2.899,2.8968,2.8975,2.8951,2.8936,2.8929,2.8907,2.8899,2.8874,2.8888,2.8879,2.8859,2.8848,2.8819,2.8852,2.8816,2.8815,2.882,2.8761,2.8752,2.8703,2.878,2.8779,2.8778,0,2.9021,2.9003,2.8957,2.8941,2.8932,2.891,2.8888,2.8868,2.885,2.8846,2.883,2.8832,2.8801,2.8821,2.8777,2.88,2.8785,2.8777,2.8775,2.877,2.8793,2.8752,2.8688,2.868,2.8768,2.8768,2.8769,0,2.8982,2.8947,2.8915,2.8906,2.8887,2.8871,2.8862,2.8846,2.8831,2.881,2.88,2.8776,2.8762,2.8742,2.8736,2.8752,2.8691,2.8712,2.8685,2.8685,2.8671,2.8672,2.8601,2.8665,2.8665,2.8665,2.8665,0,2.893,2.8901,2.8897,2.8877,2.8844,2.8844,2.8811,2.8803,2.8788,2.8764,2.8769,2.8747,2.8741,2.8717,2.8712,2.8675,2.8669,2.8664,2.8662,2.8662,2.8663,2.8651,2.8654,2.8663,2.8663,2.8664,2.8664,0,2.8881,2.8877,2.8842,2.8828,2.8823,2.8799,2.8786,2.8765,2.8759,2.873,2.8722,2.8712,2.8684,2.8677,2.8642,2.8639,2.8595,2.8598,2.8601,2.8601,2.8574,2.8576,2.8493,2.8481,2.8553,2.8553,2.8552,0,2.8847,2.8825,2.8809,2.8794,2.8785,2.8762,2.8747,2.8745,2.8729,2.8707,2.8688,2.8661,2.8639,2.8593,2.8581,2.8554,2.8555,2.8527,2.8551,2.8551,2.8552,2.8553,2.8549,2.8522,2.8522,2.8521,2.8521,0,2.8787,2.8786,2.8766,2.8744,2.8727,2.8709,2.8693,2.868,2.8675,2.8657,2.8629,2.8612,2.8577,2.8549,2.8522,2.851,2.8513,2.8514,2.8506,2.8505,2.8507,2.8503,2.8587,2.8515,2.8516,2.8516,2.8516,2.8517,2.8743,2.8724,2.8709,2.8685,2.8673,2.8657,2.8637,2.8629,2.8606,2.8579,2.8579,2.8547,2.8528,2.8493,2.8479,2.8453,2.8461,2.845,2.8447,2.8444,2.8441,2.8513,2.8448,2.8448,2.8449,2.8449,2.8449,0,2.8682,2.8673,2.8652,2.8628,2.8609,2.8617,2.8598,2.8581,2.8554,2.8537,2.8516,2.8482,2.8455,2.8441,2.8413,2.8394,2.8395,2.8387,2.8387,2.8384,2.8436,2.8445,2.8387,2.8387,2.8387,2.8387,2.8387,2.8387,2.8648,2.8615,2.8612,2.8572,2.8562,2.8533,2.8522,2.8506,2.8492,2.8456,2.8433,2.8425,2.8408,2.8379,2.8353,2.835,2.8338,2.8328,2.8325,2.8374,2.838,2.8386,2.8395,2.8327,2.8326,2.8275,2.8275,2.8274]}]]